| time (UTC) | temp F | wind direction | speed MPH | gust MPH | rain 1hr in | rain 24hr in | rain mn in | humidity % | barometer mb |
| 20260502170514 | 74 | 351 | 3.0 | 8.0 | 0.00 | 0.00 | 0.00 | 42 | 1022.2 |
| 20260502163923 | 71 | 18 | 4.0 | 9.0 | 0.00 | 0.00 | 0.00 | 40 | 1022.3 |
| 20260502163404 | 70 | 13 | 5.0 | 10.0 | 0.00 | 0.00 | 0.00 | 40 | 1022.3 |
| 20260502162854 | 70 | 20 | 4.0 | 10.0 | 0.00 | 0.00 | 0.00 | 39 | 1022.3 |
| 20260502162344 | 70 | 18 | 2.0 | 9.0 | 0.00 | 0.00 | 0.00 | 44 | 1022.1 |
| 20260502161835 | 71 | 317 | 1.0 | 6.0 | 0.00 | 0.00 | 0.00 | 48 | 1022.2 |
| 20260502161324 | 71 | 10 | 1.0 | 6.0 | 0.00 | 0.00 | 0.00 | 51 | 1022.1 |
| 20260502160814 | 69 | 15 | 3.0 | 8.0 | 0.00 | 0.00 | 0.00 | 48 | 1022.1 |
| 20260502160317 | 69 | 22 | 3.0 | 9.0 | 0.00 | 0.00 | 0.00 | 48 | 1022.1 |
| 20260502151655 | 67 | 321 | 2.0 | 5.0 | 0.00 | 0.00 | 0.00 | 57 | 1022.0 |
| 20260502151146 | 67 | 343 | 2.0 | 5.0 | 0.00 | 0.00 | 0.00 | 62 | 1022.0 |
| 20260502150639 | 66 | 10 | 2.0 | 8.0 | 0.00 | 0.00 | 0.00 | 61 | 1022.0 |
| 20260502150134 | 65 | 3 | 2.0 | 8.0 | 0.00 | 0.00 | 0.00 | 65 | 1022.0 |
| 20260502130354 | 52 | 351 | 2.0 | 5.0 | 0.00 | 0.00 | 0.00 | 85 | 1021.2 |
| 20260502123322 | 50 | 356 | 3.0 | 4.0 | 0.00 | 0.00 | 0.00 | 84 | 1020.8 |
| 20260502122807 | 50 | 322 | 3.0 | 4.0 | 0.00 | 0.00 | 0.00 | 84 | 1020.7 |
| 20260502122307 | 49 | 311 | 3.0 | 4.0 | 0.00 | 0.00 | 0.00 | 84 | 1020.7 |
| 20260502121759 | 49 | 305 | 2.0 | 4.0 | 0.00 | 0.00 | 0.00 | 83 | 1020.6 |
| 20260502121254 | 49 | 301 | 2.0 | 4.0 | 0.00 | 0.00 | 0.00 | 83 | 1020.5 |
| 20260502121239 | 49 | 301 | 2.0 | 4.0 | 0.00 | 0.00 | 0.00 | 83 | 1020.4 |
| 20260502120723 | 49 | 320 | 1.0 | 2.0 | 0.00 | 0.00 | 0.00 | 83 | 1020.2 |
| 20260502120327 | 49 | 320 | 1.0 | 3.0 | 0.00 | 0.00 | 0.00 | 83 | 1020.3 |
| 20260502115217 | 49 | 320 | 1.0 | 4.0 | 0.00 | 0.00 | 0.00 | 83 | 1020.1 |
| 20260502115212 | 49 | 320 | 2.0 | 4.0 | 0.00 | 0.00 | 0.00 | 83 | 1020.0 |
| 20260502114205 | 49 | 314 | 1.0 | 3.0 | 0.00 | 0.00 | 0.00 | 82 | 1019.9 |
| 20260502113655 | 49 | 317 | 1.0 | 3.0 | 0.00 | 0.00 | 0.00 | 82 | 1019.8 |
| 20260502113647 | 49 | 315 | 1.0 | 2.0 | 0.00 | 0.00 | 0.00 | 82 | 1019.7 |
| 20260502112635 | 49 | 315 | 0.0 | 1.0 | 0.00 | 0.00 | 0.00 | 82 | 1019.6 |
| 20260502112126 | 49 | 315 | 0.0 | 0.0 | 0.00 | 0.00 | 0.00 | 82 | 1019.6 |
| 20260502111615 | 49 | 315 | 0.0 | 0.0 | 0.00 | 0.00 | 0.00 | 82 | 1019.5 |
| 20260502111105 | 49 | 315 | 0.0 | 1.0 | 0.00 | 0.00 | 0.00 | 82 | 1019.4 |
| 20260502110555 | 49 | 315 | 0.0 | 1.0 | 0.00 | 0.00 | 0.00 | 82 | 1019.3 |
| 20260502110045 | 49 | 315 | 0.0 | 2.0 | 0.00 | 0.00 | 0.00 | 82 | 1019.2 |
| 20260502105535 | 49 | 315 | 0.0 | 2.0 | 0.00 | 0.00 | 0.00 | 82 | 1019.2 |
| 20260502105527 | 49 | 315 | 0.0 | 2.0 | 0.00 | 0.00 | 0.00 | 82 | 1019.2 |
| 20260502104515 | 50 | 315 | 1.0 | 3.0 | 0.00 | 0.00 | 0.00 | 82 | 1019.2 |
| 20260502104005 | 50 | 315 | 1.0 | 3.0 | 0.00 | 0.00 | 0.00 | 82 | 1019.1 |
| 20260502103455 | 50 | 312 | 0.0 | 2.0 | 0.00 | 0.00 | 0.00 | 82 | 1019.1 |
| 20260502102945 | 50 | 311 | 0.0 | 2.0 | 0.00 | 0.00 | 0.00 | 82 | 1019.1 |
| 20260502102435 | 50 | 310 | 0.0 | 2.0 | 0.00 | 0.00 | 0.00 | 82 | 1019.1 |
| 20260502101925 | 50 | 310 | 1.0 | 3.0 | 0.00 | 0.00 | 0.00 | 82 | 1019.1 |
| 20260502101416 | 50 | 309 | 2.0 | 3.0 | 0.00 | 0.00 | 0.00 | 82 | 1019.3 |
| 20260502100906 | 50 | 309 | 2.0 | 3.0 | 0.00 | 0.00 | 0.00 | 81 | 1019.4 |
| 20260502100355 | 50 | 309 | 1.0 | 3.0 | 0.00 | 0.00 | 0.00 | 81 | 1019.2 |
| 20260502100347 | 50 | 310 | 1.0 | 3.0 | 0.00 | 0.00 | 0.00 | 81 | 1019.1 |
| 20260502091208 | 51 | 243 | 1.0 | 2.0 | 0.00 | 0.00 | 0.00 | 79 | 1018.7 |
| 20260502091149 | 51 | 240 | 1.0 | 2.0 | 0.00 | 0.00 | 0.00 | 79 | 1018.8 |
| 20260502090754 | 51 | 242 | 1.0 | 2.0 | 0.00 | 0.00 | 0.00 | 79 | 1018.8 |
| 20260502090139 | 51 | 240 | 0.0 | 2.0 | 0.00 | 0.00 | 0.00 | 79 | 1018.8 |
| 20260502071309 | 53 | 220 | 0.0 | 0.0 | 0.00 | 0.00 | 0.00 | 75 | 1018.9 |
| 20260502070759 | 53 | 220 | 0.0 | 0.0 | 0.00 | 0.00 | 0.00 | 75 | 1018.9 |
| 20260502070249 | 53 | 219 | 0.0 | 0.0 | 0.00 | 0.00 | 0.00 | 75 | 1019.0 |
| 20260502065739 | 53 | 219 | 0.0 | 0.0 | 0.00 | 0.00 | 0.00 | 75 | 1018.9 |
| 20260502065229 | 53 | 219 | 0.0 | 0.0 | 0.00 | 0.00 | 0.00 | 75 | 1019.0 |
| 20260502064719 | 53 | 219 | 0.0 | 0.0 | 0.00 | 0.00 | 0.00 | 75 | 1018.9 |
| 20260502064711 | 53 | 219 | 0.0 | 0.0 | 0.00 | 0.00 | 0.00 | 75 | 1019.0 |
| 20260502063700 | 53 | 219 | 0.0 | 0.0 | 0.00 | 0.00 | 0.00 | 75 | 1019.0 |
| 20260502063152 | 53 | 219 | 0.0 | 0.0 | 0.00 | 0.00 | 0.00 | 75 | 1019.0 |
| 20260502062651 | 53 | 219 | 0.0 | 0.0 | 0.00 | 0.00 | 0.00 | 75 | 1019.0 |
| 20260502062141 | 53 | 219 | 0.0 | 2.0 | 0.00 | 0.00 | 0.00 | 75 | 1019.0 |
| 20260502061629 | 54 | 221 | 1.0 | 4.0 | 0.00 | 0.00 | 0.00 | 74 | 1019.0 |
| 20260502061215 | 54 | 222 | 1.0 | 4.0 | 0.00 | 0.00 | 0.00 | 74 | 1018.9 |
| 20260502060100 | 54 | 98 | 0.0 | 0.0 | 0.00 | 0.00 | 0.00 | 74 | 1019.1 |
| 20260502055549 | 54 | 125 | 0.0 | 0.0 | 0.00 | 0.00 | 0.00 | 73 | 1019.1 |
| 20260502055039 | 54 | 107 | 0.0 | 0.0 | 0.00 | 0.00 | 0.00 | 73 | 1019.1 |
| 20260502054531 | 54 | 100 | 0.0 | 0.0 | 0.00 | 0.00 | 0.00 | 73 | 1019.1 |
| 20260502054031 | 54 | 99 | 0.0 | 1.0 | 0.00 | 0.00 | 0.00 | 73 | 1019.2 |
| 20260502053519 | 54 | 99 | 0.0 | 1.0 | 0.00 | 0.00 | 0.00 | 72 | 1019.2 |
| 20260502053011 | 54 | 99 | 0.0 | 1.0 | 0.00 | 0.00 | 0.00 | 72 | 1019.2 |
| 20260502052501 | 55 | 99 | 0.0 | 0.0 | 0.00 | 0.00 | 0.00 | 72 | 1019.0 |
| 20260502052452 | 55 | 99 | 0.0 | 0.0 | 0.00 | 0.00 | 0.00 | 71 | 1018.9 |
| 20260502051441 | 55 | 99 | 0.0 | 0.0 | 0.00 | 0.00 | 0.00 | 71 | 1018.9 |
| 20260502050931 | 55 | 99 | 0.0 | 0.0 | 0.00 | 0.00 | 0.00 | 71 | 1018.9 |
| 20260502050431 | 55 | 99 | 0.0 | 0.0 | 0.00 | 0.00 | 0.00 | 71 | 1019.0 |
| 20260502045929 | 55 | 98 | 0.0 | 0.0 | 0.00 | 0.00 | 0.00 | 71 | 1019.0 |
| 20260502045421 | 55 | 98 | 0.0 | 0.0 | 0.00 | 0.00 | 0.00 | 70 | 1019.0 |
| 20260502044913 | 56 | 98 | 0.0 | 0.0 | 0.00 | 0.00 | 0.00 | 70 | 1018.9 |
| 20260502044413 | 56 | 98 | 0.0 | 0.0 | 0.00 | 0.00 | 0.00 | 69 | 1018.9 |
| 20260502043856 | 56 | 98 | 0.0 | 0.0 | 0.00 | 0.00 | 0.00 | 69 | 1018.9 |
| 20260502043345 | 56 | 98 | 0.0 | 0.0 | 0.00 | 0.00 | 0.00 | 69 | 1018.9 |
| 20260502042827 | 56 | 98 | 0.0 | 0.0 | 0.00 | 0.00 | 0.00 | 68 | 1018.9 |
| 20260502042817 | 57 | 98 | 0.0 | 0.0 | 0.00 | 0.00 | 0.00 | 67 | 1018.9 |
| 20260502042421 | 56 | 98 | 0.0 | 0.0 | 0.00 | 0.00 | 0.00 | 68 | 1018.9 |
| 20260502041303 | 57 | 98 | 0.0 | 1.0 | 0.00 | 0.00 | 0.00 | 67 | 1018.9 |
| 20260502040753 | 57 | 98 | 0.0 | 1.0 | 0.00 | 0.00 | 0.00 | 67 | 1018.9 |
| 20260502040243 | 57 | 98 | 0.0 | 2.0 | 0.00 | 0.00 | 0.00 | 67 | 1018.8 |
| 20260502035734 | 58 | 98 | 0.0 | 2.0 | 0.00 | 0.00 | 0.00 | 67 | 1018.9 |
| 20260502035226 | 58 | 98 | 0.0 | 2.0 | 0.00 | 0.00 | 0.00 | 66 | 1018.8 |
| 20260502034727 | 58 | 98 | 1.0 | 3.0 | 0.00 | 0.00 | 0.00 | 67 | 1018.7 |
| 20260502034216 | 58 | 97 | 1.0 | 3.0 | 0.00 | 0.00 | 0.00 | 67 | 1018.5 |
| 20260502033705 | 58 | 96 | 1.0 | 4.0 | 0.00 | 0.00 | 0.00 | 66 | 1018.6 |
| 20260502033155 | 58 | 92 | 1.0 | 4.0 | 0.00 | 0.00 | 0.00 | 66 | 1018.5 |
| 20260502032645 | 58 | 91 | 1.0 | 3.0 | 0.00 | 0.00 | 0.00 | 66 | 1018.5 |
| 20260502032135 | 58 | 95 | 1.0 | 3.0 | 0.00 | 0.00 | 0.00 | 66 | 1018.5 |
| 20260502031626 | 58 | 93 | 0.0 | 3.0 | 0.00 | 0.00 | 0.00 | 65 | 1018.6 |
| 20260502031115 | 58 | 92 | 0.0 | 3.0 | 0.00 | 0.00 | 0.00 | 65 | 1018.5 |
| 20260502030605 | 59 | 101 | 1.0 | 4.0 | 0.00 | 0.00 | 0.00 | 65 | 1018.5 |
| 20260502030055 | 59 | 100 | 1.0 | 4.0 | 0.00 | 0.00 | 0.00 | 64 | 1018.4 |
| 20260502030046 | 59 | 101 | 1.0 | 4.0 | 0.00 | 0.00 | 0.00 | 64 | 1018.3 |
| 20260502025035 | 59 | 114 | 1.0 | 4.0 | 0.00 | 0.00 | 0.00 | 64 | 1018.2 |
| 20260502024525 | 59 | 119 | 2.0 | 5.0 | 0.00 | 0.00 | 0.00 | 64 | 1018.1 |
| 20260502024013 | 59 | 87 | 3.0 | 5.0 | 0.00 | 0.00 | 0.00 | 64 | 1018.0 |
| 20260502023503 | 59 | 90 | 2.0 | 5.0 | 0.00 | 0.00 | 0.00 | 64 | 1017.9 |
| 20260502022953 | 59 | 100 | 2.0 | 6.0 | 0.00 | 0.00 | 0.00 | 64 | 1018.0 |
| 20260502022443 | 59 | 94 | 2.0 | 6.0 | 0.00 | 0.00 | 0.00 | 64 | 1018.0 |
| 20260502021943 | 60 | 113 | 1.0 | 4.0 | 0.00 | 0.00 | 0.00 | 63 | 1018.0 |
| 20260502021433 | 60 | 106 | 1.0 | 4.0 | 0.00 | 0.00 | 0.00 | 63 | 1018.0 |
| 20260502020923 | 60 | 101 | 1.0 | 4.0 | 0.00 | 0.00 | 0.00 | 63 | 1017.9 |
| 20260502020420 | 60 | 120 | 2.0 | 4.0 | 0.00 | 0.00 | 0.00 | 63 | 1017.8 |
| 20260502015911 | 60 | 108 | 1.0 | 4.0 | 0.00 | 0.00 | 0.00 | 62 | 1017.7 |
| 20260502015401 | 60 | 98 | 1.0 | 7.0 | 0.00 | 0.00 | 0.00 | 63 | 1017.5 |
| 20260502015353 | 60 | 100 | 1.0 | 7.0 | 0.00 | 0.00 | 0.00 | 63 | 1017.4 |
| 20260502014842 | 60 | 91 | 1.0 | 4.0 | 0.00 | 0.00 | 0.00 | 62 | 1017.3 |
| 20260502014332 | 60 | 130 | 1.0 | 5.0 | 0.00 | 0.00 | 0.00 | 62 | 1017.3 |
| 20260502013822 | 60 | 121 | 1.0 | 5.0 | 0.00 | 0.00 | 0.00 | 62 | 1017.2 |
| 20260502012811 | 61 | 100 | 1.0 | 4.0 | 0.00 | 0.00 | 0.00 | 62 | 1017.0 |
| 20260502012301 | 61 | 132 | 1.0 | 4.0 | 0.00 | 0.00 | 0.00 | 61 | 1017.0 |
| 20260502011751 | 61 | 130 | 2.0 | 4.0 | 0.00 | 0.00 | 0.00 | 61 | 1016.9 |
| 20260502011240 | 61 | 78 | 2.0 | 5.0 | 0.00 | 0.00 | 0.00 | 60 | 1016.8 |
| 20260502010731 | 61 | 116 | 2.0 | 6.0 | 0.00 | 0.00 | 0.00 | 60 | 1016.6 |
| 20260502010221 | 61 | 110 | 2.0 | 6.0 | 0.00 | 0.00 | 0.00 | 60 | 1016.4 |
| 20260502010213 | 61 | 98 | 3.0 | 8.0 | 0.00 | 0.00 | 0.00 | 60 | 1016.4 |
| 20260502005200 | 62 | 109 | 2.0 | 8.0 | 0.00 | 0.00 | 0.00 | 60 | 1016.3 |
| 20260502004651 | 62 | 82 | 2.0 | 6.0 | 0.00 | 0.00 | 0.00 | 60 | 1016.1 |
| 20260502004643 | 62 | 83 | 2.0 | 8.0 | 0.00 | 0.00 | 0.00 | 60 | 1016.1 |
| 20260502003631 | 62 | 97 | 1.0 | 8.0 | 0.00 | 0.00 | 0.00 | 60 | 1015.9 |
| 20260502003121 | 62 | 126 | 1.0 | 5.0 | 0.00 | 0.00 | 0.00 | 59 | 1015.9 |
| 20260502002621 | 62 | 140 | 1.0 | 5.0 | 0.00 | 0.00 | 0.00 | 58 | 1015.9 |
| 20260502002111 | 62 | 136 | 2.0 | 6.0 | 0.00 | 0.00 | 0.00 | 57 | 1015.9 |
| 20260502001602 | 62 | 89 | 4.0 | 9.0 | 0.00 | 0.00 | 0.00 | 58 | 1015.6 |
| 20260502001044 | 62 | 97 | 4.0 | 9.0 | 0.00 | 0.00 | 0.00 | 58 | 1015.6 |
| 20260502000533 | 62 | 96 | 3.0 | 9.0 | 0.00 | 0.00 | 0.00 | 57 | 1015.6 |
| 20260502000023 | 62 | 89 | 3.0 | 6.0 | 0.00 | 0.00 | 0.00 | 56 | 1015.6 |
| 20260501235513 | 62 | 70 | 3.0 | 9.0 | 0.00 | 0.00 | 0.00 | 56 | 1015.6 |
| 20260501235004 | 62 | 85 | 3.0 | 7.0 | 0.00 | 0.00 | 0.00 | 56 | 1015.6 |
| 20260501234453 | 62 | 100 | 2.0 | 6.0 | 0.00 | 0.00 | 0.00 | 56 | 1015.7 |
| 20260501233944 | 62 | 87 | 2.0 | 7.0 | 0.00 | 0.00 | 0.00 | 56 | 1015.7 |
| 20260501233932 | 62 | 141 | 3.0 | 7.0 | 0.00 | 0.00 | 0.00 | 55 | 1015.5 |
| 20260501232930 | 62 | 108 | 3.0 | 7.0 | 0.00 | 0.00 | 0.00 | 56 | 1015.4 |
| 20260501232430 | 62 | 95 | 4.0 | 13.0 | 0.00 | 0.00 | 0.00 | 56 | 1015.3 |
| 20260501231930 | 62 | 80 | 3.0 | 13.0 | 0.00 | 0.00 | 0.00 | 55 | 1015.2 |
| 20260501231431 | 62 | 72 | 3.0 | 9.0 | 0.00 | 0.00 | 0.00 | 56 | 1015.1 |
| 20260501230923 | 63 | 80 | 4.0 | 9.0 | 0.00 | 0.00 | 0.00 | 55 | 1015.1 |
| 20260501230411 | 63 | 67 | 4.0 | 10.0 | 0.00 | 0.00 | 0.00 | 55 | 1015.1 |
| 20260501225902 | 63 | 68 | 3.0 | 10.0 | 0.00 | 0.00 | 0.00 | 55 | 1015.0 |
| 20260501225351 | 63 | 56 | 3.0 | 9.0 | 0.00 | 0.00 | 0.00 | 55 | 1015.1 |
| 20260501224842 | 63 | 43 | 4.0 | 12.0 | 0.00 | 0.00 | 0.00 | 55 | 1015.0 |
| 20260501224331 | 63 | 95 | 4.0 | 12.0 | 0.00 | 0.00 | 0.00 | 54 | 1015.0 |
| 20260501224321 | 63 | 70 | 5.0 | 15.0 | 0.00 | 0.00 | 0.00 | 53 | 1015.0 |
| 20260501223304 | 63 | 45 | 4.0 | 15.0 | 0.00 | 0.00 | 0.00 | 53 | 1014.9 |
| 20260501222753 | 63 | 60 | 4.0 | 14.0 | 0.00 | 0.00 | 0.00 | 54 | 1015.1 |
| 20260501222233 | 63 | 47 | 4.0 | 11.0 | 0.00 | 0.00 | 0.00 | 54 | 1015.0 |
| 20260501221722 | 63 | 101 | 5.0 | 15.0 | 0.00 | 0.00 | 0.00 | 53 | 1015.1 |
| 20260501221215 | 63 | 61 | 5.0 | 15.0 | 0.00 | 0.00 | 0.00 | 52 | 1014.9 |
| 20260501220709 | 63 | 66 | 4.0 | 15.0 | 0.00 | 0.00 | 0.00 | 54 | 1014.8 |
| 20260501220154 | 63 | 18 | 4.0 | 11.0 | 0.00 | 0.00 | 0.00 | 52 | 1014.9 |
| 20260501220149 | 63 | 51 | 5.0 | 14.0 | 0.00 | 0.00 | 0.00 | 53 | 1014.9 |
| 20260501215141 | 63 | 26 | 5.0 | 14.0 | 0.00 | 0.00 | 0.00 | 53 | 1014.9 |
| 20260501214635 | 63 | 37 | 5.0 | 17.0 | 0.00 | 0.00 | 0.00 | 52 | 1015.0 |
| 20260501214129 | 63 | 54 | 5.0 | 17.0 | 0.00 | 0.00 | 0.00 | 53 | 1014.9 |
| 20260501213622 | 63 | 69 | 5.0 | 14.0 | 0.00 | 0.00 | 0.00 | 53 | 1014.9 |
| 20260501213615 | 63 | 36 | 6.0 | 14.0 | 0.00 | 0.00 | 0.00 | 52 | 1014.9 |
| 20260501212614 | 63 | 66 | 5.0 | 13.0 | 0.00 | 0.00 | 0.00 | 54 | 1015.0 |
| 20260501212109 | 63 | 30 | 5.0 | 12.0 | 0.00 | 0.00 | 0.00 | 54 | 1015.0 |
| 20260501211717 | 63 | 43 | 4.0 | 9.0 | 0.00 | 0.00 | 0.00 | 54 | 1015.0 |
| 20260501211608 | 63 | 62 | 3.0 | 8.0 | 0.00 | 0.00 | 0.00 | 54 | 1015.1 |
| 20260501211603 | 63 | 59 | 4.0 | 12.0 | 0.00 | 0.00 | 0.00 | 54 | 1015.0 |
| 20260501210053 | 64 | 26 | 5.0 | 12.0 | 0.00 | 0.00 | 0.00 | 54 | 1015.0 |
| 20260501205550 | 64 | 22 | 5.0 | 12.0 | 0.00 | 0.00 | 0.00 | 53 | 1015.1 |
| 20260501205049 | 63 | 72 | 5.0 | 12.0 | 0.00 | 0.00 | 0.00 | 52 | 1015.3 |
| 20260501205044 | 64 | 98 | 5.0 | 12.0 | 0.00 | 0.00 | 0.00 | 53 | 1015.1 |
| 20260501204035 | 64 | 53 | 5.0 | 12.0 | 0.00 | 0.00 | 0.00 | 52 | 1015.6 |
| 20260501203524 | 64 | 47 | 5.0 | 12.0 | 0.00 | 0.00 | 0.00 | 52 | 1015.8 |
| 20260501203022 | 64 | 26 | 4.0 | 10.0 | 0.00 | 0.00 | 0.00 | 54 | 1015.6 |
| 20260501202516 | 64 | 77 | 4.0 | 10.0 | 0.00 | 0.00 | 0.00 | 53 | 1015.7 |
| 20260501202011 | 63 | 83 | 4.0 | 9.0 | 0.00 | 0.00 | 0.00 | 53 | 1015.7 |
| 20260501201508 | 63 | 68 | 5.0 | 13.0 | 0.00 | 0.00 | 0.00 | 53 | 1015.7 |
| 20260501201005 | 63 | 78 | 4.0 | 13.0 | 0.00 | 0.00 | 0.00 | 54 | 1016.2 |
| 20260501200458 | 63 | 116 | 3.0 | 8.0 | 0.00 | 0.00 | 0.00 | 53 | 1016.2 |
| 20260501195951 | 63 | 54 | 4.0 | 11.0 | 0.00 | 0.00 | 0.00 | 52 | 1016.2 |
| 20260501195946 | 63 | 53 | 6.0 | 20.0 | 0.00 | 0.00 | 0.00 | 52 | 1016.1 |
| 20260501194933 | 63 | 81 | 5.0 | 20.0 | 0.00 | 0.00 | 0.00 | 52 | 1016.2 |
| 20260501194425 | 63 | 66 | 5.0 | 12.0 | 0.00 | 0.00 | 0.00 | 51 | 1016.1 |
| 20260501193908 | 63 | 70 | 6.0 | 14.0 | 0.00 | 0.00 | 0.00 | 51 | 1015.8 |
| 20260501193400 | 63 | 96 | 5.0 | 14.0 | 0.00 | 0.00 | 0.00 | 51 | 1015.4 |
| 20260501192851 | 62 | 20 | 6.0 | 12.0 | 0.00 | 0.00 | 0.00 | 52 | 1014.9 |
| 20260501192340 | 62 | 70 | 6.0 | 14.0 | 0.00 | 0.00 | 0.00 | 52 | 1014.8 |
| 20260501191833 | 62 | 57 | 5.0 | 14.0 | 0.00 | 0.00 | 0.00 | 53 | 1014.9 |
| 20260501191825 | 62 | 47 | 5.0 | 15.0 | 0.00 | 0.00 | 0.00 | 51 | 1015.0 |
| 20260501190814 | 62 | 103 | 5.0 | 15.0 | 0.00 | 0.00 | 0.00 | 52 | 1015.1 |
| 20260501190306 | 62 | 114 | 5.0 | 15.0 | 0.00 | 0.00 | 0.00 | 52 | 1015.2 |
| 20260501185757 | 62 | 70 | 5.0 | 15.0 | 0.00 | 0.00 | 0.00 | 51 | 1015.1 |
| 20260501185246 | 62 | 52 | 5.0 | 13.0 | 0.00 | 0.00 | 0.00 | 52 | 1015.1 |
| 20260501184736 | 62 | 91 | 5.0 | 10.0 | 0.00 | 0.00 | 0.00 | 50 | 1015.6 |
| 20260501184226 | 62 | 72 | 5.0 | 13.0 | 0.00 | 0.00 | 0.00 | 49 | 1015.5 |
| 20260501184221 | 62 | 57 | 6.0 | 19.0 | 0.00 | 0.00 | 0.00 | 47 | 1015.5 |
| 20260501183210 | 62 | 78 | 7.0 | 19.0 | 0.00 | 0.00 | 0.00 | 46 | 1015.5 |
| 20260501183200 | 63 | 80 | 7.0 | 19.0 | 0.00 | 0.00 | 0.00 | 46 | 1015.4 |
| 20260501182151 | 63 | 105 | 6.0 | 19.0 | 0.00 | 0.00 | 0.00 | 46 | 1015.5 |
| 20260501181640 | 64 | 80 | 6.0 | 17.0 | 0.00 | 0.00 | 0.00 | 47 | 1015.4 |
| 20260501181130 | 63 | 111 | 6.0 | 17.0 | 0.00 | 0.00 | 0.00 | 48 | 1015.4 |
| 20260501180620 | 63 | 41 | 7.0 | 19.0 | 0.00 | 0.00 | 0.00 | 49 | 1015.8 |
| 20260501180112 | 63 | 95 | 8.0 | 19.0 | 0.00 | 0.00 | 0.00 | 48 | 1015.7 |
| 20260501175600 | 64 | 37 | 7.0 | 19.0 | 0.00 | 0.00 | 0.00 | 46 | 1015.8 |
| 20260501175050 | 66 | 49 | 8.0 | 19.0 | 0.00 | 0.00 | 0.00 | 47 | 1015.8 |
| 20260501174541 | 66 | 62 | 7.0 | 19.0 | 0.00 | 0.00 | 0.00 | 48 | 1015.8 |